If you wish to contribute or participate in the discussions about articles you are invited to join SKYbrary as a registered user

 Actions

Robinson Crusoe Airport

From SKYbrary Wiki

SCIR
Airport
ICAO: SCIR
Summary
Name Robinson Crusoe Airport
Region South America and Caribbean
Territory Chile CL.gif
Location Isla Robinson Crusoe, Valparaiso
Serving San Juan Bautista
Elevation 131.978 m
433 ft
433 ft131.978 m
Type small airport
Coordinates 33° 39' 54.00" S, 78° 55' 46.93" W
Runways
Designator Length Width Surface ROPS
14/32 860 m2,821.522 ft
18 m59.055 ft
ASP /


METAR
Observation SCIR 252000Z 15014KT 9999 BKN020 18/14 Q1023
Station ROBINSON CRUSOE
Date/Time 25 February 2020 20:00:00
Wind direction 150°
Wind speed 14 kts
Lowest cloud amount broken clouds
Temperature 18°C
Dew point 14°C
Humidity 77%
QNH 1023 hPa
Weather condition n/a

Airport on the island of Robinson Crusoe, Chile.

Climatology

Temperate oceanic climate (Köppen climate classification Cfb)

Maps

Terrain

Loading map...

Airport Layout

Loading map...


Accidents & Serious Incidents at or in vicinity of SCIR

None on SKYbrary